[[{"header":{"parameterUnit":"m.s-1","parameterCategory":1,"la1":30.2991,"la2":30.254,"lo1":-89.0895,"lo2":-89.0444,"dy":0.0017,"dx":0.0017,"nx":28,"ny":28,"refTime":"2025-05-26T09:00:00:Z","depth":0,"parameterNumber":2,"parameterNumberName":"U-component_of_WINDS"},"data":[0,0,0,0,0,0,0,0,0,0,0,0,0,0,0,0,0,0,0,0,0,0,0,0,0,0,0,0,0,0,0,0,0,0,0,0,0,0,0,0,0,0,0,0,0,0,0,0,0,0,0,0,0,0,0,0,0,0,2.5398,2.5399,0,2.5474,2.5475,2.5475,2.5455,2.5453,2.5452,2.545,2.5523,2.5526,2.553,0,0,0,0,0,0,0,0,0,0,0,0,0,2.5229,2.5233,2.5398,2.5399,2.54,2.5474,2.5475,2.5476,2.5455,2.5453,2.5451,2.5449,2.5522,2.5526,2.553,0,0,0,0,0,0,0,0,0,0,0,0,0,2.5304,2.5234,2.5398,2.5398,2.5399,2.5473,2.5475,2.5476,2.5455,2.5453,2.5451,2.5449,2.5521,2.5525,2.553,2.5607,0,0,2.5546,2.5548,0,0,0,0,0,0,0,0,2.5299,2.531,2.5397,2.5398,2.5399,2.5452,2.5442,2.552,2.5456,2.5434,2.545,2.5447,2.5501,2.5508,2.5527,2.5611,2.5614,2.5546,2.5549,2.5551,2.5553,0,0,0,0,0,0,0,2.5294,2.5306,2.5428,2.5398,2.54,2.5393,2.5401,2.5457,2.5479,2.5435,2.5434,2.5444,2.5501,2.5522,2.5528,2.5615,2.5546,2.5551,2.5554,2.5556,2.5763,2.5765,0,0,0,0,0,0,2.5289,2.5302,2.5425,2.543,2.5343,2.5398,2.5407,2.5438,2.5478,2.5483,2.5446,2.5442,2.5514,2.5522,2.5531,2.5621,2.5551,2.5556,2.5559,2.576,2.5763,2.5766,0,0,0,0,0,0,2.5285,2.53,2.5422,2.5366,2.5381,2.5403,2.5438,2.544,2.5461,2.5486,2.549,2.5463,2.5513,2.5524,2.5588,2.5623,2.5558,2.5563,2.5757,2.5761,2.5765,2.5803,0,0,0,0,0,0,2.5281,2.5299,2.533,2.5367,2.5384,2.548,2.544,2.5443,2.547,2.5467,2.5503,2.5507,2.5512,2.5581,2.5593,2.5629,2.5567,2.5754,2.5759,2.5763,2.5799,2.5808,2.5815,0,0,0,0,0,2.5275,2.5337,2.5331,2.5346,2.5423,2.5482,2.5492,2.5497,2.5473,2.5503,2.5519,2.5506,2.5618,2.5587,2.5601,2.5639,2.5752,2.5758,2.5763,2.5795,2.5806,2.5815,0,0,0,0,0,0,2.5302,2.5342,2.5336,2.5412,2.5444,2.5478,2.5516,2.5509,2.5547,2.5542,2.5546,2.5555,2.562,2.5636,2.5602,2.5714,2.5681,2.569,2.5701,2.5711,2.572,2.5713,2.5571,0,0,0,0,0,2.5317,2.5363,2.5395,2.5459,2.5476,2.5494,2.5519,2.5521,2.5554,2.5566,2.5587,2.5618,2.5659,2.5687,2.5727,2.5802,2.5808,2.5835,2.5843,2.585,2.5856,2.5895,2.5906,2.5784,2.5784,2.5784,0,0,2.5348,2.5376,2.5404,2.5465,2.549,2.5536,2.5505,2.5555,2.5588,2.5573,2.5635,2.5652,2.5686,2.5755,2.5787,2.5771,2.5892,2.5857,2.5862,2.5865,2.5901,2.5913,2.5923,2.5788,2.5787,2.5787,0,0,2.5427,2.5454,2.5509,2.5535,2.5574,2.5585,2.5598,2.5634,2.5645,2.5708,2.5697,2.5736,2.5809,2.5833,2.5855,2.5943,2.5931,2.5956,2.5998,2.6036,2.6045,2.6054,2.6083,2.6093,2.5963,2.5963,2.5964,0,2.546,2.553,2.5538,2.5589,2.5615,2.5606,2.5661,2.5685,2.5734,2.5751,2.5733,2.5824,2.5846,2.592,2.5942,2.5961,2.5974,2.5951,2.6044,2.6052,2.606,2.6088,2.6099,2.5966,2.5966,2.5965,2.5965,0,2.5567,2.5616,2.5656,2.5705,2.5736,2.5788,2.5802,2.5832,2.5832,2.5845,2.5907,2.5934,2.5979,2.5997,2.5997,2.6071,2.6059,2.6043,2.6009,2.6074,2.61,2.6111,2.597,2.5969,2.5968,2.5967,0,0,2.5663,2.5717,2.5731,2.5752,2.5794,2.5831,2.5883,2.5927,2.5952,2.5986,2.6027,2.609,2.6075,2.6099,2.6102,2.6135,2.62,2.6114,2.6115,2.6127,2.628,2.6289,2.6302,2.6194,2.6196,2.6198,2.6276,0,2.5744,2.5836,2.5845,2.5926,2.5969,2.5962,2.6006,2.6036,2.6049,2.6087,2.6101,2.6144,2.6123,2.6137,2.617,2.6185,2.623,2.618,2.6229,2.6231,2.6218,2.6316,2.6326,2.6399,2.6286,2.6288,2.6289,0,2.585,2.5888,2.5974,2.6009,2.6028,2.6068,2.6108,2.6146,2.6178,2.6186,2.6214,2.6212,2.6262,2.6229,2.6298,2.6263,2.6284,2.6295,2.6298,2.63,2.6262,2.6317,2.6422,2.6432,2.6306,2.6304,2.6303,0,2.5907,2.5981,2.6041,2.606,2.6103,2.6131,2.615,2.618,2.6206,2.6242,2.6259,2.63,2.6321,2.6352,2.636,2.6336,2.6428,2.6396,2.6433,2.6432,2.6449,2.6448,2.6556,2.6469,2.6469,2.6468,2.6468,0,2.5994,2.6046,2.6067,2.6104,2.6162,2.6171,2.6227,2.6244,2.6272,2.631,2.6307,2.6342,2.6353,2.639,2.6397,2.6451,2.6461,2.6467,2.6467,2.6465,2.6464,2.6477,2.647,2.6471,2.6471,2.647,2.647,0,2.6067,2.6084,2.6148,2.6184,2.6194,2.6235,2.6264,2.6299,2.6313,2.6361,2.6373,2.6393,2.6437,2.6449,2.6501,2.6506,2.6568,2.6566,2.6557,2.6556,2.6591,2.6586,2.6709,2.6724,2.6629,2.663,2.6631,0,2.612,2.616,2.62,2.6226,2.6246,2.6289,2.6316,2.6326,2.6354,2.6394,2.6423,2.6467,2.6502,2.6571,2.6589,2.6629,2.6625,2.6665,2.6631,2.6627,2.6622,2.6618,2.6621,2.6671,2.6672,2.6672,2.6673,0,2.621,2.6217,2.6256,2.6299,2.6331,2.6365,2.6397,2.6418,2.6433,2.6464,2.6509,2.6537,2.659,2.6632,2.6672,2.669,2.6683,2.6685,2.6694,2.6691,2.6683,2.6685,2.6572,2.6681,2.668,2.6679,2.6679,2.6679,2.6272,2.6307,2.634,2.6384,2.641,2.644,2.6474,2.6492,2.653,2.6575,2.6579,2.6627,2.6658,2.6711,2.6731,2.6767,2.6755,2.677,2.6774,2.6776,2.6778,2.668,2.6775,2.6775,2.6775,2.6775,2.6774,0,2.636,2.6382,2.6422,2.6468,2.6502,2.6496,2.6531,2.6559,2.6602,2.6632,2.6667,2.6717,2.6758,2.678,2.6821,2.6845,2.6843,2.6855,2.6852,2.6855,2.6788,2.6774,2.6856,2.6856,2.6856,2.6856,2.6856,2.6856,2.641,2.6467,2.6477,2.6546,2.6567,2.6615,2.6636,2.6663,2.6686,2.6744,2.6778,2.6793,2.6819,2.6861,2.6898,2.6903,2.6917,2.693,2.6933,2.6869,2.686,2.6852,2.6839,2.6934,2.6934,2.6997,2.6998,2.6998]},{"header":{"parameterUnit":"m.s-1","parameterCategory":1,"la1":30.2991,"la2":30.254,"lo1":-89.0895,"lo2":-89.0444,"dy":0.0017,"dx":0.0017,"nx":28,"ny":28,"refTime":"2025-05-26T09:00:00:Z","depth":0,"parameterNumber":3,"parameterNumberName":"V-component_of_WINDS"},"data":[0,0,0,0,0,0,0,0,0,0,0,0,0,0,0,0,0,0,0,0,0,0,0,0,0,0,0,0,0,0,0,0,0,0,0,0,0,0,0,0,0,0,0,0,0,0,0,0,0,0,0,0,0,0,0,0,0,0,3.401,3.401,0,3.4024,3.4025,3.4025,3.3942,3.394,3.3938,3.3935,3.3947,3.395,3.3952,0,0,0,0,0,0,0,0,0,0,0,0,0,3.3909,3.3911,3.401,3.401,3.401,3.4024,3.4025,3.4025,3.3943,3.394,3.3937,3.3934,3.3946,3.3949,3.3952,0,0,0,0,0,0,0,0,0,0,0,0,0,3.3941,3.3912,3.401,3.3971,3.3968,3.4024,3.4025,3.4025,3.3943,3.394,3.3936,3.3933,3.3945,3.3949,3.3953,3.4046,0,0,3.3964,3.3966,0,0,0,0,0,0,0,0,3.3939,3.3945,3.3977,3.3974,3.397,3.3978,3.3993,3.4032,3.3944,3.3953,3.3935,3.3931,3.396,3.3962,3.3973,3.4047,3.4047,3.3965,3.3967,3.3968,3.397,0,0,0,0,0,0,0,3.3937,3.3944,3.4015,3.3977,3.3973,3.3952,3.3953,3.4,3.3976,3.3952,3.3946,3.3949,3.3958,3.3969,3.3972,3.4047,3.3964,3.3968,3.397,3.3972,3.4199,3.4202,0,0,0,0,0,0,3.3941,3.3942,3.4015,3.4016,3.3946,3.3957,3.3958,3.3979,3.3975,3.3971,3.3952,3.3945,3.3965,3.3968,3.3973,3.4081,3.3968,3.3972,3.3974,3.4195,3.42,3.4204,0,0,0,0,0,0,3.3939,3.3948,3.4014,3.3978,3.3985,3.3962,3.3987,3.3981,3.3993,3.3975,3.397,3.3968,3.3962,3.3967,3.4029,3.4081,3.3974,3.3977,3.4191,3.4196,3.4202,3.43,0,0,0,0,0,0,3.3936,3.3948,3.3983,3.3979,3.3987,3.4071,3.399,3.3984,3.4,3.3991,3.3989,3.3986,3.396,3.4024,3.4032,3.4084,3.398,3.4186,3.4193,3.42,3.4292,3.4309,3.4323,0,0,0,0,0,3.3933,3.401,3.3986,3.3995,3.4031,3.4075,3.4079,3.4048,3.4004,3.404,3.4028,3.3986,3.4074,3.4031,3.404,3.4093,3.4182,3.4191,3.4199,3.4285,3.4305,3.4322,0,0,0,0,0,0,3.4019,3.4009,3.3981,3.406,3.4069,3.4061,3.4104,3.407,3.4091,3.4082,3.4042,3.4043,3.4111,3.4108,3.406,3.4183,3.412,3.4131,3.4183,3.4201,3.4216,3.4215,3.3983,0,0,0,0,0,3.4048,3.4085,3.4073,3.4143,3.4149,3.4127,3.4144,3.412,3.4127,3.413,3.4123,3.4132,3.4161,3.4181,3.4207,3.4292,3.429,3.4333,3.4348,3.4361,3.437,3.4415,3.4434,3.4232,3.4232,3.4231,0,0,3.4106,3.4105,3.4131,3.4161,3.4165,3.4203,3.413,3.4173,3.4201,3.4136,3.4194,3.419,3.4196,3.427,3.4302,3.427,3.4426,3.4372,3.4382,3.4384,3.4425,3.4445,3.4462,3.4238,3.4236,3.4236,0,0,3.4232,3.4236,3.4294,3.4301,3.4309,3.4293,3.4308,3.4305,3.43,3.4357,3.431,3.4342,3.4394,3.44,3.441,3.4541,3.4502,3.455,3.4629,3.4673,3.4689,3.4703,3.4749,3.4766,3.456,3.456,3.4561,0,3.4304,3.4361,3.4329,3.4376,3.439,3.4335,3.4394,3.4401,3.4417,3.4428,3.4392,3.4456,3.4456,3.4531,3.4563,3.4573,3.4587,3.455,3.4689,3.4703,3.4715,3.4759,3.4776,3.4566,3.4566,3.4565,3.4564,0,3.4448,3.4488,3.4535,3.4553,3.4572,3.4625,3.46,3.4624,3.4599,3.4587,3.4646,3.4645,3.467,3.4686,3.4661,3.4757,3.4737,3.4696,3.4632,3.4741,3.4781,3.4798,3.4574,3.4572,3.4571,3.4569,0,0,3.4627,3.4628,3.4646,3.4653,3.4659,3.4689,3.4739,3.4765,3.4786,3.4799,3.484,3.4885,3.4848,3.4859,3.4835,3.4874,3.4977,3.4828,3.4827,3.4855,3.5082,3.5112,3.5132,3.4952,3.4955,3.4957,3.5081,0,3.475,3.4837,3.481,3.4897,3.4934,3.4883,3.4927,3.4934,3.4925,3.4954,3.4943,3.4976,3.4924,3.4931,3.4967,3.4957,3.5022,3.4947,3.4988,3.499,3.4987,3.5153,3.5185,3.5302,3.5097,3.5099,3.5101,0,3.4905,3.4925,3.5017,3.5017,3.5031,3.5071,3.5093,3.5122,3.5129,3.512,3.5134,3.5102,3.515,3.5087,3.5154,3.5104,3.5119,3.5117,3.512,3.5122,3.5052,3.5159,3.5339,3.5356,3.5126,3.5124,3.5122,0,3.5026,3.5076,3.5138,3.5146,3.5148,3.5177,3.5179,3.5183,3.5201,3.5219,3.523,3.5254,3.5267,3.5286,3.5261,3.5218,3.5331,3.5266,3.5324,3.5325,3.5349,3.5348,3.5534,3.5361,3.5361,3.536,3.536,0,3.5165,3.5223,3.5192,3.523,3.5293,3.5262,3.5325,3.532,3.5325,3.5361,3.5318,3.5352,3.5317,3.5348,3.5329,3.5386,3.5393,3.5386,3.538,3.5389,3.539,3.5398,3.5389,3.5365,3.5364,3.5363,3.5362,0,3.531,3.5292,3.5355,3.5353,3.5353,3.54,3.5397,3.5431,3.5419,3.5465,3.5474,3.5455,3.5489,3.5467,3.55,3.5487,3.5563,3.5546,3.5561,3.5556,3.5615,3.561,3.5811,3.5836,3.5649,3.565,3.5652,0,3.5399,3.5443,3.5445,3.5467,3.5472,3.5507,3.5525,3.5496,3.5516,3.5529,3.5562,3.5593,3.5615,3.5672,3.5661,3.5687,3.567,3.5739,3.5673,3.5681,3.567,3.5667,3.5671,3.5751,3.5754,3.5755,3.5757,0,3.556,3.555,3.5578,3.5604,3.5627,3.5645,3.566,3.568,3.5651,3.5676,3.5711,3.5729,3.5764,3.5795,3.5817,3.5818,3.5783,3.5778,3.5793,3.5802,3.5809,3.5806,3.5596,3.5773,3.5772,3.577,3.5769,3.5769,3.5679,3.5716,3.5724,3.5757,3.5766,3.5781,3.5813,3.5806,3.5835,3.5863,3.5844,3.5885,3.5892,3.5918,3.5924,3.5955,3.5927,3.5948,3.5954,3.5959,3.5967,3.5805,3.5959,3.5959,3.5958,3.5958,3.5957,0,3.5837,3.5841,3.5872,3.5895,3.5921,3.5887,3.5902,3.5926,3.5963,3.5974,3.5998,3.6038,3.6068,3.606,3.6087,3.6114,3.6099,3.6122,3.6119,3.612,3.5991,3.5976,3.6134,3.6134,3.6134,3.6134,3.6134,3.6134,3.5923,3.5983,3.5973,3.6037,3.6039,3.6081,3.6092,3.6106,3.6114,3.6162,3.6187,3.6182,3.6185,3.6212,3.6238,3.6235,3.6246,3.6276,3.6267,3.6146,3.6129,3.6112,3.6097,3.6279,3.6279,3.6392,3.6394,3.6394]}]]